Weather History for Tunica, MS

Change the Weather History Date:

Sunday, March 10, 2013

  Actual Average (KMEM) Record (KMEM)
Temperature  
Mean Temperature 55 °F 52 °F  
Max Temperature 64 °F 62 °F 82 °F (1986)
Min Temperature 46 °F 43 °F 20 °F (1934)
Degree Days  
Heating Degree Days 10 13  
Month to date heating degree days 144  
Since 1 July heating degree days 2594  
Cooling Degree Days 0 0  
Month to date cooling degree days 0  
Year to date cooling degree days 3  
Growing Degree Days 5 (Base 50)    
Moisture  
Dew Point 51 °F    
Average Humidity 82    
Maximum Humidity 100    
Minimum Humidity 55    
Precipitation  
Precipitation 0.91 in 0.16 in 2.00 in (1903)
Month to date precipitation 1.58  
Year to date precipitation 9.95  
Snow  
Snow 0.00 in 0.00 in 0.50 in (1984)
Month to date snowfall 0.2  
Since 1 July snowfall 3.6  
Snow Depth -    
Sea Level Pressure  
Sea Level Pressure 29.86 in    
Wind  
Wind Speed 15 mph (SSE)    
Max Wind Speed 29 mph    
Max Gust Speed 38 mph    
Visibility 9 miles    
Events Rain , Thunderstorm    
T = Trace of Precipitation, MM = Missing Value Source: NWS Daily Summary

Daily Weather History Graph

Daily Weather History Graph

Search for Another Location

Airport:

Trip Planner

Search our weather history database for the weather conditions in past years. The results will help you decide how hot, cold, wet, or windy it might be!

Date:

Astronomy

Mar. 10, 2013 Rise Set
Actual Time 7:18 AM CDT 7:05 PM CDT
Civil Twilight 6:53 AM CDT 7:30 PM CDT
Nautical Twilight 6:24 AM CDT 7:59 PM CDT
Astronomical Twilight 5:54 AM CDT 8:28 PM CDT
Moon 6:16 AM CDT (3/10) 6:13 PM CDT (3/10)
Length of Visible Light 12h 37m
Length of Day
11h 46m
Waning Crescent, 2% of the Moon is Illuminated
Mar 10
Waning Crescent
Mar 11
New
Mar 19
First Quarter
Mar 27
Full
Apr 2
Last Quarter

Hourly Weather History & Observations

Time (CDT) Temp. Windchill Dew Point Humidity Pressure Visibility Wind Dir Wind Speed Gust Speed Precip Events Conditions
12:15 AM 59.0 °F - 42.8 °F 55% 29.95 in 10.0 mi SSE 12.7 mph - N/A   Scattered Clouds
12:35 AM 59.0 °F - 42.8 °F 55% 29.96 in 10.0 mi SSE 15.0 mph - N/A   Mostly Cloudy
12:55 AM 59.0 °F - 44.6 °F 59% 29.95 in 10.0 mi SSE 13.8 mph - N/A   Scattered Clouds
1:15 AM 59.0 °F - 44.6 °F 59% 29.95 in 10.0 mi SSE 12.7 mph - N/A   Mostly Cloudy
1:35 AM 59.0 °F - 44.6 °F 59% 29.95 in 10.0 mi SSE 11.5 mph - N/A   Mostly Cloudy
1:55 AM 59.0 °F - 44.6 °F 59% 29.93 in 10.0 mi SSE 12.7 mph - N/A   Mostly Cloudy
3:15 AM 59.0 °F - 46.4 °F 63% 29.93 in 10.0 mi SSE 15.0 mph 20.7 mph N/A   Mostly Cloudy
3:35 AM 59.0 °F - 48.2 °F 67% 29.92 in 10.0 mi SSE 15.0 mph - N/A   Mostly Cloudy
3:55 AM 59.0 °F - 50.0 °F 72% 29.91 in 10.0 mi SSE 15.0 mph - N/A   Scattered Clouds
4:15 AM 59.0 °F - 50.0 °F 72% 29.90 in 10.0 mi SE 17.3 mph - N/A   Clear
4:35 AM 59.0 °F - 50.0 °F 72% 29.89 in 10.0 mi SE 18.4 mph 24.2 mph N/A   Clear
4:55 AM 59.0 °F - 50.0 °F 72% 29.87 in 10.0 mi SE 18.4 mph 24.2 mph N/A   Clear
5:15 AM 59.0 °F - 50.0 °F 72% 29.87 in 10.0 mi SE 17.3 mph 23.0 mph N/A   Clear
5:35 AM 59.0 °F - 50.0 °F 72% 29.89 in 10.0 mi SSE 17.3 mph - N/A   Clear
5:55 AM 59.0 °F - 50.0 °F 72% 29.88 in 10.0 mi SSE 15.0 mph - N/A   Clear
6:15 AM 59.0 °F - 50.0 °F 72% 29.90 in 10.0 mi SSE 17.3 mph - N/A   Scattered Clouds
7:35 AM 59.0 °F - 51.8 °F 77% 29.85 in 10.0 mi SSE 21.9 mph 26.5 mph N/A   Clear
7:55 AM 59.0 °F - 51.8 °F 77% 29.85 in 10.0 mi SSE 19.6 mph 28.8 mph N/A   Scattered Clouds
8:15 AM 59.0 °F - 53.6 °F 82% 29.87 in 10.0 mi SSE 19.6 mph 27.6 mph N/A   Scattered Clouds
8:35 AM 59.0 °F - 53.6 °F 82% 29.86 in 10.0 mi SE 21.9 mph 29.9 mph N/A   Scattered Clouds
8:55 AM 60.8 °F - 53.6 °F 77% 29.87 in 10.0 mi SSE 23.0 mph 28.8 mph N/A   Scattered Clouds
9:15 AM 60.8 °F - 53.6 °F 77% 29.87 in 10.0 mi SSE 21.9 mph 25.3 mph N/A   Mostly Cloudy
9:35 AM 60.8 °F - 53.6 °F 77% 29.87 in 10.0 mi SSE 19.6 mph 28.8 mph N/A   Scattered Clouds
9:55 AM 60.8 °F - 53.6 °F 77% 29.86 in 10.0 mi SSE 24.2 mph 29.9 mph N/A   Scattered Clouds
10:15 AM 60.8 °F - 53.6 °F 77% 29.83 in 10.0 mi SSE 24.2 mph 29.9 mph N/A   Scattered Clouds
10:35 AM 62.6 °F - 55.4 °F 77% 29.83 in 10.0 mi SE 21.9 mph 29.9 mph N/A   Mostly Cloudy
10:55 AM 62.6 °F - 55.4 °F 77% 29.83 in 10.0 mi SSE 24.2 mph 32.2 mph N/A   Mostly Cloudy
11:15 AM 64.4 °F - 55.4 °F 73% 29.81 in 10.0 mi SSE 25.3 mph 34.5 mph N/A   Mostly Cloudy
11:35 AM 64.4 °F - 55.4 °F 73% 29.83 in 10.0 mi SSE 26.5 mph 38.0 mph N/A   Mostly Cloudy
11:55 AM 64.4 °F - 55.4 °F 73% 29.82 in 10.0 mi SSE 28.8 mph 36.8 mph N/A   Mostly Cloudy
12:15 PM 64.4 °F - 55.4 °F 73% 29.82 in 10.0 mi SSE 25.3 mph 33.4 mph N/A   Mostly Cloudy
12:35 PM 64.4 °F - 57.2 °F 77% 29.81 in 7.0 mi SSE 21.9 mph 34.5 mph N/A Rain Rain
12:55 PM 62.6 °F - 57.2 °F 82% 29.81 in 7.0 mi SSE 19.6 mph 26.5 mph N/A Rain Rain
1:15 PM 64.4 °F - 59.0 °F 83% 29.80 in 10.0 mi SSE 18.4 mph 26.5 mph N/A Rain Light Rain
1:35 PM 64.4 °F - 59.0 °F 83% 29.79 in 10.0 mi SSE 20.7 mph 28.8 mph N/A   Mostly Cloudy
1:55 PM 64.4 °F - 59.0 °F 83% 29.78 in 7.0 mi SSE 21.9 mph 32.2 mph 0.01 in Rain Light Rain
2:15 PM 59.0 °F - 51.8 °F 77% 29.83 in 7.0 mi WNW 18.4 mph 28.8 mph N/A Rain Rain
2:35 PM 53.6 °F - 50.0 °F 88% 29.81 in 3.0 mi NW 17.3 mph 26.5 mph 0.12 in Rain Rain
2:55 PM 51.8 °F - 50.0 °F 94% 29.82 in 2.0 mi NW 13.8 mph - 0.23 in Rain Heavy Rain
3:15 PM 51.8 °F - 51.8 °F 100% 29.82 in 5.0 mi NW 11.5 mph - 0.04 in Rain Rain
3:35 PM 53.6 °F - 51.8 °F 94% 29.84 in 3.0 mi NW 8.1 mph - 0.12 in Rain Heavy Rain
3:55 PM 53.6 °F - 51.8 °F 94% 29.85 in 5.0 mi NNW 3.5 mph - 0.15 in Rain , Thunderstorm Rain
4:15 PM 53.6 °F - 51.8 °F 94% 29.82 in 3.0 mi NNE 5.8 mph - 0.07 in Rain Rain
4:35 PM 51.8 °F - 51.8 °F 100% 29.84 in 1.2 mi Calm Calm - 0.21 in Rain Heavy Rain
4:55 PM 53.6 °F - 51.8 °F 94% 29.81 in 7.0 mi East 5.8 mph - 0.27 in Rain Light Rain
5:15 PM 51.8 °F - 51.8 °F 100% 29.82 in 7.0 mi ESE 8.1 mph - 0.01 in Rain Rain
5:35 PM 51.8 °F - 51.8 °F 100% 29.82 in 10.0 mi ESE 8.1 mph - 0.05 in Rain Light Rain
5:55 PM 51.8 °F - 51.8 °F 100% 29.84 in 10.0 mi SSE 5.8 mph - 0.05 in Rain , Thunderstorm Light Thunderstorms and Rain
6:15 PM 51.8 °F - 51.8 °F 100% 29.82 in 1.8 mi SSE 5.8 mph - 0.11 in Rain Heavy Rain
6:35 PM 53.6 °F - 51.8 °F 94% 29.83 in 10.0 mi SSE 8.1 mph - 0.12 in Rain Rain
6:55 PM 53.6 °F - 51.8 °F 94% 29.84 in 10.0 mi South 8.1 mph - 0.14 in Rain , Thunderstorm Thunderstorms and Rain
7:15 PM 53.6 °F - 51.8 °F 94% 29.84 in 10.0 mi South 6.9 mph - N/A Rain Light Rain
7:35 PM 53.6 °F - 51.8 °F 94% 29.84 in 10.0 mi SSE 10.4 mph - 0.01 in Rain Light Rain
7:55 PM 53.6 °F - 51.8 °F 94% 29.85 in 7.0 mi South 10.4 mph - 0.05 in Rain Rain
8:15 PM 53.6 °F - 51.8 °F 94% 29.85 in 10.0 mi South 9.2 mph - 0.01 in   Overcast
8:35 PM 53.6 °F - 51.8 °F 94% 29.85 in 10.0 mi South 6.9 mph - 0.01 in   Mostly Cloudy
8:55 PM 53.6 °F - 51.8 °F 94% 29.85 in 10.0 mi South 8.1 mph - 0.01 in   Mostly Cloudy
9:15 PM 53.6 °F - 51.8 °F 94% 29.86 in 10.0 mi South 8.1 mph - N/A   Overcast
9:35 PM 53.6 °F - 51.8 °F 94% 29.87 in 10.0 mi South 9.2 mph - N/A   Overcast
9:55 PM 53.6 °F - 51.8 °F 94% 29.87 in 10.0 mi SSW 6.9 mph - N/A Rain Light Rain
10:15 PM 53.6 °F - 51.8 °F 94% 29.87 in 10.0 mi SSW 9.2 mph - N/A   Overcast
10:55 PM 51.8 °F - 51.8 °F 100% 29.87 in 10.0 mi SW 9.2 mph - N/A   Scattered Clouds
11:15 PM 50.0 °F - 46.4 °F 87% 29.88 in 10.0 mi West 11.5 mph - N/A   Mostly Cloudy
11:35 PM 48.2 °F - 42.8 °F 82% 29.89 in 10.0 mi West 13.8 mph - N/A   Overcast
11:55 PM 48.2 °F - 42.8 °F 82% 29.90 in 10.0 mi West 12.7 mph - N/A   Overcast
12:15 AM 46.4 °F 40.7 °F 41.0 °F 81% 29.89 in 10.0 mi WNW 12.7 mph - N/A   Mostly Cloudy
12:35 AM 46.4 °F 41.9 °F 41.0 °F 81% 29.90 in 10.0 mi West 9.2 mph - N/A   Scattered Clouds
12:55 AM 46.4 °F 41.1 °F 41.0 °F 81% 29.90 in 10.0 mi West 11.5 mph - N/A   Scattered Clouds